| time (UTC) | temp F | wind direction | speed knots | gust knots | rain 1hr in | rain 24hr in | rain mn in | humidity % | barometer mb |
| 20260504214718 | 52 | 83 | 1.7 | 5.2 | 0.00 | 0.00 | 0.00 | 43 | 1015.5 |
| 20260504214215 | 51 | 345 | 3.5 | 7.0 | 0.00 | 0.00 | 0.00 | 45 | 1015.6 |
| 20260504213712 | 53 | 18 | 3.5 | 9.6 | 0.00 | 0.00 | 0.00 | 42 | 1015.5 |
| 20260504213208 | 54 | 7 | 2.6 | 7.0 | 0.00 | 0.00 | 0.00 | 42 | 1015.9 |
| 20260504212705 | 53 | 355 | 3.5 | 6.1 | 0.00 | 0.00 | 0.00 | 44 | 1016.0 |
| 20260504212202 | 53 | 313 | 1.7 | 9.6 | 0.00 | 0.00 | 0.00 | 46 | 1015.8 |
| 20260504211659 | 53 | 243 | 3.5 | 6.1 | 0.00 | 0.00 | 0.00 | 46 | 1015.8 |
| 20260504211155 | 53 | 155 | 2.6 | 5.2 | 0.00 | 0.00 | 0.00 | 45 | 1016.0 |
| 20260504210653 | 53 | 347 | 1.7 | 7.8 | 0.00 | 0.00 | 0.00 | 44 | 1016.2 |
| 20260504210149 | 52 | 208 | 5.2 | 7.8 | 0.00 | 0.00 | 0.00 | 47 | 1016.0 |
| 20260504205647 | 53 | 203 | 5.2 | 9.6 | 0.00 | 0.00 | 0.00 | 44 | 1015.9 |
| 20260504205144 | 52 | 84 | 1.7 | 5.2 | 0.00 | 0.00 | 0.00 | 45 | 1016.0 |
| 20260504204643 | 50 | 170 | 2.6 | 5.2 | 0.00 | 0.00 | 0.00 | 46 | 1016.2 |
| 20260504204141 | 50 | 357 | 0.9 | 3.5 | 0.00 | 0.00 | 0.00 | 46 | 1016.4 |
| 20260504203639 | 49 | 114 | 2.6 | 5.2 | 0.00 | 0.00 | 0.00 | 49 | 1016.0 |
| 20260504203137 | 49 | 247 | 3.5 | 7.8 | 0.00 | 0.00 | 0.00 | 50 | 1016.4 |
| 20260504202637 | 49 | 230 | 3.5 | 8.7 | 0.00 | 0.00 | 0.00 | 51 | 1016.4 |
| 20260504202134 | 49 | 206 | 5.2 | 8.7 | 0.00 | 0.00 | 0.00 | 50 | 1016.7 |
| 20260504201631 | 49 | 219 | 6.1 | 9.6 | 0.00 | 0.00 | 0.00 | 52 | 1016.4 |
| 20260504201129 | 49 | 234 | 5.2 | 9.6 | 0.00 | 0.00 | 0.00 | 51 | 1016.6 |
| 20260504200626 | 50 | 208 | 6.1 | 8.7 | 0.00 | 0.00 | 0.00 | 51 | 1016.7 |
| 20260504200122 | 49 | 242 | 3.5 | 7.8 | 0.00 | 0.00 | 0.00 | 49 | 1016.4 |
| 20260504195618 | 48 | 145 | 4.3 | 6.1 | 0.00 | 0.00 | 0.00 | 49 | 1016.4 |
| 20260504195114 | 47 | 187 | 7.0 | 9.6 | 0.00 | 0.00 | 0.00 | 53 | 1016.7 |
| 20260504194611 | 46 | 190 | 5.2 | 7.8 | 0.00 | 0.00 | 0.00 | 54 | 1016.6 |
| 20260504194107 | 46 | 175 | 5.2 | 12.2 | 0.00 | 0.00 | 0.00 | 57 | 1016.6 |
| 20260504193603 | 46 | 184 | 8.7 | 13.0 | 0.00 | 0.00 | 0.00 | 57 | 1016.8 |
| 20260504193102 | 47 | 185 | 7.0 | 12.2 | 0.00 | 0.00 | 0.00 | 53 | 1016.8 |
| 20260504192600 | 48 | 185 | 8.7 | 12.2 | 0.00 | 0.00 | 0.00 | 55 | 1016.6 |
| 20260504192058 | 49 | 185 | 7.8 | 11.3 | 0.00 | 0.00 | 0.00 | 52 | 1016.8 |
| 20260504191556 | 48 | 204 | 7.8 | 11.3 | 0.00 | 0.00 | 0.00 | 49 | 1016.7 |
| 20260504191051 | 48 | 220 | 2.6 | 7.0 | 0.00 | 0.00 | 0.00 | 49 | 1016.4 |
| 20260504190548 | 47 | 267 | 3.5 | 6.1 | 0.00 | 0.00 | 0.00 | 49 | 1016.7 |
| 20260504190044 | 47 | 207 | 3.5 | 5.2 | 0.00 | 0.00 | 0.00 | 48 | 1016.7 |
| 20260504185541 | 47 | 221 | 4.3 | 8.7 | 0.00 | 0.00 | 0.00 | 50 | 1016.8 |
| 20260504185038 | 48 | 285 | 5.2 | 7.8 | 0.00 | 0.00 | 0.00 | 49 | 1016.9 |
| 20260504184533 | 48 | 230 | 4.3 | 6.1 | 0.00 | 0.00 | 0.00 | 49 | 1016.8 |
| 20260504184029 | 48 | 225 | 1.7 | 5.2 | 0.00 | 0.00 | 0.00 | 50 | 1016.8 |
| 20260504183526 | 49 | 266 | 6.1 | 7.0 | 0.00 | 0.00 | 0.00 | 48 | 1016.9 |
| 20260504183024 | 50 | 265 | 3.5 | 5.2 | 0.00 | 0.00 | 0.00 | 47 | 1016.8 |
| 20260504182521 | 50 | 262 | 2.6 | 6.1 | 0.00 | 0.00 | 0.00 | 47 | 1017.1 |
| 20260504182018 | 50 | 187 | 2.6 | 5.2 | 0.00 | 0.00 | 0.00 | 48 | 1017.2 |
| 20260504181515 | 49 | 293 | 3.5 | 7.0 | 0.00 | 0.00 | 0.00 | 50 | 1017.2 |
| 20260504181014 | 48 | 260 | 2.6 | 6.1 | 0.00 | 0.00 | 0.00 | 53 | 1017.1 |
| 20260504180512 | 47 | 257 | 3.5 | 7.8 | 0.00 | 0.00 | 0.00 | 53 | 1016.9 |
| 20260504180010 | 48 | 236 | 4.3 | 7.0 | 0.00 | 0.00 | 0.00 | 52 | 1017.1 |
| 20260504175507 | 48 | 150 | 1.7 | 3.5 | 0.00 | 0.00 | 0.00 | 52 | 1017.2 |
| 20260504175004 | 48 | 115 | 2.6 | 6.1 | 0.00 | 0.00 | 0.00 | 52 | 1016.9 |
| 20260504174502 | 49 | 236 | 2.6 | 11.3 | 0.00 | 0.00 | 0.00 | 52 | 1017.2 |
| 20260504173959 | 49 | 261 | 4.3 | 8.7 | 0.00 | 0.00 | 0.00 | 51 | 1017.1 |
| 20260504173455 | 50 | 59 | 1.7 | 7.8 | 0.00 | 0.00 | 0.00 | 49 | 1017.3 |
| 20260504172953 | 51 | 216 | 3.5 | 5.2 | 0.00 | 0.00 | 0.00 | 46 | 1017.1 |
| 20260504172448 | 50 | 221 | 1.7 | 3.5 | 0.00 | 0.00 | 0.00 | 46 | 1017.2 |
| 20260504171945 | 51 | 171 | 4.3 | 6.1 | 0.00 | 0.00 | 0.00 | 45 | 1017.2 |
| 20260504171443 | 52 | 228 | 2.6 | 7.0 | 0.00 | 0.00 | 0.00 | 44 | 1017.3 |
| 20260504170939 | 52 | 192 | 1.7 | 3.5 | 0.00 | 0.00 | 0.00 | 47 | 1017.3 |
| 20260504170436 | 51 | 111 | 0.9 | 2.6 | 0.00 | 0.00 | 0.00 | 47 | 1017.2 |
| 20260504160355 | 45 | 203 | 5.2 | 6.1 | 0.00 | 0.00 | 0.00 | 55 | 1017.1 |
| 20260504150820 | 47 | 206 | 4.3 | 7.8 | 0.00 | 0.00 | 0.00 | 52 | 1017.9 |
| 20260504150316 | 47 | 180 | 4.3 | 7.0 | 0.00 | 0.00 | 0.00 | 52 | 1018.0 |
| 20260504141246 | 42 | 191 | 3.5 | 6.1 | 0.00 | 0.00 | 0.00 | 60 | 1017.9 |
| 20260504140742 | 42 | 193 | 3.5 | 5.2 | 0.00 | 0.00 | 0.00 | 60 | 1017.6 |
| 20260504140238 | 42 | 210 | 3.5 | 5.2 | 0.00 | 0.00 | 0.00 | 60 | 1017.6 |
| 20260504130707 | 40 | 204 | 1.7 | 2.6 | 0.00 | 0.00 | 0.00 | 69 | 1017.7 |
| 20260504130203 | 40 | 209 | 2.6 | 2.6 | 0.00 | 0.00 | 0.00 | 69 | 1017.5 |
| 20260504120127 | 39 | 221 | 5.2 | 7.0 | 0.00 | 0.00 | 0.00 | 71 | 1017.3 |
| 20260504110554 | 39 | 212 | 5.2 | 7.0 | 0.00 | 0.00 | 0.00 | 73 | 1017.6 |
| 20260504100516 | 41 | 208 | 7.0 | 9.6 | 0.00 | 0.00 | 0.00 | 67 | 1017.6 |
| 20260504081909 | 42 | 192 | 5.2 | 7.0 | 0.00 | 0.00 | 0.00 | 57 | 1017.6 |
| 20260504081406 | 43 | 185 | 3.5 | 8.7 | 0.00 | 0.00 | 0.00 | 57 | 1017.7 |
| 20260504080902 | 42 | 154 | 5.2 | 7.8 | 0.00 | 0.00 | 0.00 | 57 | 1018.0 |
| 20260504080359 | 42 | 165 | 3.5 | 7.8 | 0.00 | 0.00 | 0.00 | 57 | 1018.1 |
| 20260504070326 | 43 | 196 | 7.8 | 9.6 | 0.00 | 0.00 | 0.00 | 45 | 1018.0 |
| 20260504060247 | 47 | 204 | 1.7 | 1.7 | 0.00 | 0.00 | 0.00 | 33 | 1018.4 |
| 20260504050715 | 46 | 153 | 1.7 | 1.7 | 0.00 | 0.00 | 0.00 | 36 | 1018.8 |
| 20260504050212 | 46 | 143 | 0.9 | 2.6 | 0.00 | 0.00 | 0.00 | 36 | 1018.9 |
| 20260504045709 | 46 | 171 | 1.7 | 2.6 | 0.00 | 0.00 | 0.00 | 35 | 1018.8 |
| 20260504045209 | 46 | 162 | 1.7 | 1.7 | 0.00 | 0.00 | 0.00 | 35 | 1018.9 |
| 20260504044708 | 47 | 169 | 1.7 | 2.6 | 0.00 | 0.00 | 0.00 | 35 | 1018.8 |
| 20260504044204 | 47 | 148 | 1.7 | 2.6 | 0.00 | 0.00 | 0.00 | 34 | 1018.8 |
| 20260504043701 | 47 | 122 | 0.9 | 1.7 | 0.00 | 0.00 | 0.00 | 34 | 1019.0 |
| 20260504043158 | 47 | 111 | 0.9 | 1.7 | 0.00 | 0.00 | 0.00 | 34 | 1019.0 |
| 20260504042655 | 48 | 97 | 0.0 | 1.7 | 0.00 | 0.00 | 0.00 | 33 | 1019.0 |
| 20260504042152 | 47 | 140 | 0.9 | 0.9 | 0.00 | 0.00 | 0.00 | 33 | 1018.9 |
| 20260504041648 | 47 | 192 | 0.9 | 1.7 | 0.00 | 0.00 | 0.00 | 33 | 1018.9 |
| 20260504041144 | 47 | 169 | 0.9 | 1.7 | 0.00 | 0.00 | 0.00 | 33 | 1019.0 |
| 20260504040641 | 47 | 153 | 0.9 | 0.9 | 0.00 | 0.00 | 0.00 | 33 | 1019.2 |
| 20260504040138 | 47 | 161 | 0.9 | 0.9 | 0.00 | 0.00 | 0.00 | 34 | 1019.3 |
| 20260504035635 | 47 | 159 | 0.9 | 0.9 | 0.00 | 0.00 | 0.00 | 34 | 1019.2 |
| 20260504035131 | 47 | 154 | 0.9 | 1.7 | 0.00 | 0.00 | 0.00 | 34 | 1019.0 |
| 20260504034629 | 47 | 146 | 0.9 | 1.7 | 0.00 | 0.00 | 0.00 | 34 | 1019.0 |
| 20260504034126 | 47 | 148 | 0.9 | 1.7 | 0.00 | 0.00 | 0.00 | 34 | 1019.3 |
| 20260504033624 | 47 | 119 | 0.9 | 1.7 | 0.00 | 0.00 | 0.00 | 34 | 1019.2 |
| 20260504033121 | 47 | 156 | 1.7 | 1.7 | 0.00 | 0.00 | 0.00 | 35 | 1019.3 |
| 20260504032618 | 47 | 166 | 1.7 | 1.7 | 0.00 | 0.00 | 0.00 | 35 | 1019.2 |
| 20260504032115 | 47 | 185 | 1.7 | 1.7 | 0.00 | 0.00 | 0.00 | 34 | 1019.2 |
| 20260504031612 | 47 | 172 | 1.7 | 1.7 | 0.00 | 0.00 | 0.00 | 34 | 1019.2 |
| 20260504031108 | 47 | 161 | 0.9 | 1.7 | 0.00 | 0.00 | 0.00 | 34 | 1019.3 |
| 20260504030605 | 47 | 159 | 0.9 | 0.9 | 0.00 | 0.00 | 0.00 | 35 | 1019.2 |
| 20260504030101 | 47 | 116 | 0.0 | 0.9 | 0.00 | 0.00 | 0.00 | 34 | 1019.3 |
| 20260504025558 | 48 | 121 | 0.0 | 0.9 | 0.00 | 0.00 | 0.00 | 33 | 1019.0 |
| 20260504025055 | 49 | 153 | 0.0 | 0.0 | 0.00 | 0.00 | 0.00 | 32 | 1019.2 |
| 20260504024552 | 49 | 219 | 1.7 | 6.1 | 0.00 | 0.00 | 0.00 | 32 | 1019.4 |
| 20260504024049 | 49 | 92 | 0.0 | 0.0 | 0.00 | 0.00 | 0.00 | 33 | 1019.3 |
| 20260504023546 | 49 | 10 | 1.7 | 5.2 | 0.00 | 0.00 | 0.00 | 32 | 1019.3 |
| 20260504023042 | 49 | 337 | 0.9 | 1.7 | 0.00 | 0.00 | 0.00 | 33 | 1019.6 |
| 20260504022537 | 49 | 189 | 1.7 | 2.6 | 0.00 | 0.00 | 0.00 | 32 | 1019.3 |
| 20260504022034 | 50 | 141 | 0.9 | 1.7 | 0.00 | 0.00 | 0.00 | 32 | 1019.7 |
| 20260504021532 | 50 | 157 | 0.0 | 1.7 | 0.00 | 0.00 | 0.00 | 32 | 1019.4 |
| 20260504021028 | 50 | 46 | 0.9 | 7.8 | 0.00 | 0.00 | 0.00 | 33 | 1019.6 |
| 20260504020525 | 50 | 181 | 3.5 | 5.2 | 0.00 | 0.00 | 0.00 | 32 | 1019.3 |
| 20260504020022 | 50 | 112 | 0.0 | 1.7 | 0.00 | 0.00 | 0.00 | 32 | 1019.4 |
| 20260504015518 | 50 | 129 | 3.5 | 5.2 | 0.00 | 0.00 | 0.00 | 32 | 1019.2 |
| 20260504015014 | 51 | 105 | 2.6 | 5.2 | 0.00 | 0.00 | 0.00 | 32 | 1019.6 |
| 20260504014510 | 51 | 185 | 3.5 | 5.2 | 0.00 | 0.00 | 0.00 | 30 | 1019.2 |
| 20260504014008 | 51 | 174 | 4.3 | 7.8 | 0.00 | 0.00 | 0.00 | 30 | 1019.2 |
| 20260504013506 | 51 | 237 | 7.0 | 8.7 | 0.00 | 0.00 | 0.00 | 29 | 1019.2 |
| 20260504013001 | 51 | 130 | 0.9 | 0.9 | 0.00 | 0.00 | 0.00 | 27 | 1019.2 |
| 20260504012500 | 51 | 234 | 1.7 | 2.6 | 0.00 | 0.00 | 0.00 | 29 | 1019.4 |
| 20260504011957 | 51 | 110 | 0.9 | 1.7 | 0.00 | 0.00 | 0.00 | 31 | 1019.2 |
| 20260504011454 | 51 | 24 | 0.0 | 1.7 | 0.00 | 0.00 | 0.00 | 30 | 1019.0 |
| 20260504010949 | 52 | 68 | 0.0 | 0.9 | 0.00 | 0.00 | 0.00 | 31 | 1019.2 |
| 20260504010446 | 52 | 29 | 1.7 | 1.7 | 0.00 | 0.00 | 0.00 | 29 | 1018.9 |
| 20260504005942 | 52 | 16 | 0.9 | 1.7 | 0.00 | 0.00 | 0.00 | 29 | 1019.3 |
| 20260504005439 | 52 | 355 | 2.6 | 2.6 | 0.00 | 0.00 | 0.00 | 28 | 1019.6 |
| 20260504004936 | 53 | 325 | 0.9 | 2.6 | 0.00 | 0.00 | 0.00 | 28 | 1019.4 |
| 20260504004434 | 53 | 93 | 0.0 | 0.9 | 0.00 | 0.00 | 0.00 | 28 | 1019.3 |
| 20260504003931 | 53 | 46 | 0.9 | 2.6 | 0.00 | 0.00 | 0.00 | 28 | 1019.4 |
| 20260504003427 | 54 | 48 | 1.7 | 2.6 | 0.00 | 0.00 | 0.00 | 26 | 1019.6 |
| 20260504002924 | 54 | 89 | 0.0 | 1.7 | 0.00 | 0.00 | 0.00 | 25 | 1019.4 |
| 20260504002420 | 54 | 70 | 0.0 | 0.9 | 0.00 | 0.00 | 0.00 | 26 | 1019.4 |
| 20260504001918 | 54 | 175 | 0.0 | 1.7 | 0.00 | 0.00 | 0.00 | 27 | 1019.6 |
| 20260504001416 | 54 | 71 | 0.9 | 1.7 | 0.00 | 0.00 | 0.00 | 27 | 1019.4 |
| 20260504000912 | 54 | 30 | 0.9 | 2.6 | 0.00 | 0.00 | 0.00 | 27 | 1019.7 |
| 20260504000409 | 54 | 200 | 2.6 | 5.2 | 0.00 | 0.00 | 0.00 | 26 | 1019.7 |
| 20260503235906 | 54 | 34 | 0.9 | 3.5 | 0.00 | 0.00 | 0.00 | 26 | 1019.4 |
| 20260503235404 | 54 | 143 | 1.7 | 2.6 | 0.00 | 0.00 | 0.00 | 26 | 1019.7 |
| 20260503234901 | 54 | 234 | 3.5 | 6.1 | 0.00 | 0.00 | 0.00 | 27 | 1019.8 |
| 20260503234359 | 55 | 200 | 5.2 | 12.2 | 0.00 | 0.00 | 0.00 | 26 | 1019.8 |
| 20260503233856 | 55 | 198 | 3.5 | 8.7 | 0.00 | 0.00 | 0.00 | 26 | 1019.7 |
| 20260503233353 | 54 | 196 | 3.5 | 6.1 | 0.00 | 0.00 | 0.00 | 28 | 1019.8 |
| 20260503232849 | 54 | 149 | 0.9 | 3.5 | 0.00 | 0.00 | 0.00 | 27 | 1019.8 |
| 20260503232347 | 54 | 190 | 3.5 | 3.5 | 0.00 | 0.00 | 0.00 | 27 | 1019.8 |
| 20260503231844 | 54 | 172 | 3.5 | 5.2 | 0.00 | 0.00 | 0.00 | 26 | 1019.8 |
| 20260503231341 | 54 | 179 | 7.0 | 8.7 | 0.00 | 0.00 | 0.00 | 25 | 1019.7 |
| 20260503230837 | 54 | 34 | 2.6 | 9.6 | 0.00 | 0.00 | 0.00 | 25 | 1019.7 |
| 20260503230334 | 55 | 4 | 6.1 | 7.8 | 0.00 | 0.00 | 0.00 | 24 | 1019.7 |
| 20260503225832 | 55 | 27 | 1.7 | 2.6 | 0.00 | 0.00 | 0.00 | 24 | 1019.9 |
| 20260503225328 | 55 | 207 | 1.7 | 2.6 | 0.00 | 0.00 | 0.00 | 23 | 1019.9 |
| 20260503224824 | 55 | 119 | 0.9 | 1.7 | 0.00 | 0.00 | 0.00 | 23 | 1019.8 |
| 20260503224321 | 55 | 93 | 0.0 | 2.6 | 0.00 | 0.00 | 0.00 | 24 | 1020.1 |
| 20260503223819 | 55 | 309 | 2.6 | 6.1 | 0.00 | 0.00 | 0.00 | 24 | 1019.8 |
| 20260503223317 | 55 | 336 | 3.5 | 3.5 | 0.00 | 0.00 | 0.00 | 24 | 1019.8 |
| 20260503222812 | 55 | 326 | 3.5 | 6.1 | 0.00 | 0.00 | 0.00 | 24 | 1019.8 |
| 20260503222311 | 55 | 47 | 0.9 | 2.6 | 0.00 | 0.00 | 0.00 | 24 | 1020.1 |
| 20260503221809 | 56 | 158 | 1.7 | 7.0 | 0.00 | 0.00 | 0.00 | 24 | 1020.1 |
| 20260503221307 | 56 | 262 | 5.2 | 6.1 | 0.00 | 0.00 | 0.00 | 23 | 1019.8 |
| 20260503220802 | 57 | 206 | 0.9 | 2.6 | 0.00 | 0.00 | 0.00 | 23 | 1020.5 |
| 20260503220300 | 57 | 288 | 2.6 | 3.5 | 0.00 | 0.00 | 0.00 | 23 | 1020.3 |
| 20260503215756 | 57 | 207 | 0.0 | 1.7 | 0.00 | 0.00 | 0.00 | 23 | 1020.3 |
| 20260503215253 | 57 | 244 | 1.7 | 1.7 | 0.00 | 0.00 | 0.00 | 21 | 1020.5 |